$Date,$Time,DM0201B,DM0203B,DM0205B,DM0207B,DM0209B
01/02/99,00:00:01,319,162,-8,273,962
01/02/99,00:05:01,234,172,-8,277,962
01/02/99,00:10:01,265,174,-8,291,962
01/02/99,00:15:01,275,174,-8,314,962
01/02/99,00:20:01,306,161,-8,348,962
01/02/99,00:25:01,260,172,-7,367,962
01/02/99,00:30:01,256,172,-7,385,962
01/02/99,00:35:01,299,175,-7,402,962
01/02/99,00:40:01,297,175,-7,414,962
01/02/99,00:45:01,295,174,-7,441,962
01/02/99,00:50:01,285,174,-7,423,962
01/02/99,00:55:01,334,164,-7,419,962
01/02/99,01:00:01,300,177,-7,424,962
01/02/99,01:05:01,281,176,-7,431,962
01/02/99,01:10:01,314,173,-7,419,962
01/02/99,01:15:01,286,173,-7,406,962
01/02/99,01:20:01,246,165,-7,401,962
01/02/99,01:25:01,312,175,-7,387,960
01/02/99,01:30:01,299,164,-7,368,960
01/02/99,01:35:01,271,164,-7,379,960
01/02/99,01:40:01,312,164,-7,371,960
01/02/99,01:45:01,272,164,-7,363,960
01/02/99,01:50:01,313,163,-7,337,960
01/02/99,01:55:01,319,163,-7,331,960
01/02/99,02:00:01,283,174,-7,289,960
01/02/99,02:05:01,284,172,-7,684,960
01/02/99,02:10:01,313,172,-7,520,960
01/02/99,02:15:01,269,172,-7,619,960
01/02/99,02:20:01,334,168,-7,639,960
01/02/99,02:25:01,309,168,-7,633,960
01/02/99,02:30:01,281,168,-7,508,960
01/02/99,02:35:01,300,166,-6,401,960
01/02/99,02:40:01,266,172,-6,431,960
01/02/99,02:45:01,271,172,-5,603,960
01/02/99,02:50:01,243,183,-5,599,960
01/02/99,02:55:01,285,173,-4,597,960
01/02/99,03:00:01,210,183,-4,595,960
01/02/99,03:05:01,237,185,-4,595,960
01/02/99,03:10:01,255,185,-5,591,960
01/02/99,03:15:01,223,178,-4,589,960
01/02/99,03:20:01,244,188,-4,589,960
01/02/99,03:25:01,207,188,-4,587,960
01/02/99,03:30:01,208,182,-4,587,960
01/02/99,03:35:01,187,198,-3,587,960
01/02/99,03:40:01,175,182,-3,587,960
01/02/99,03:45:01,165,197,-3,589,960
01/02/99,03:50:01,147,183,-2,585,960
01/02/99,03:55:01,158,176,-1,585,960
01/02/99,04:00:01,118,179,0,585,960
01/02/99,04:05:01,62,195,0,596,960
01/02/99,04:10:01,61,280,0,609,960
01/02/99,04:15:01,83,272,0,633,960
01/02/99,04:20:01,109,290,-1,649,960
01/02/99,04:25:01,62,293,-2,657,960
01/02/99,04:30:01,84,294,-2,678,960
01/02/99,04:35:01,78,298,-2,567,960
01/02/99,04:40:01,106,310,-1,728,960
01/02/99,04:45:01,90,297,-2,586,960
01/02/99,04:50:01,68,281,-3,523,960
01/02/99,04:55:01,92,292,-4,495,960
01/02/99,05:00:01,123,294,-5,687,960
01/02/99,05:05:01,114,293,-4,665,960
01/02/99,05:10:01,106,290,-3,661,960
01/02/99,05:15:01,103,302,-4,454,960
01/02/99,05:20:01,128,306,-4,630,960
01/02/99,05:25:01,124,297,-5,582,960
01/02/99,05:30:01,146,311,-5,393,960
01/02/99,05:35:01,96,290,-6,306,960
01/02/99,05:40:01,131,303,-6,283,960
01/02/99,05:45:01,115,306,-7,272,960
01/02/99,05:50:01,128,287,-7,263,960
01/02/99,05:55:01,118,314,-7,253,960
01/02/99,06:00:01,89,318,-7,249,960
01/02/99,06:05:01,115,320,-7,243,960
01/02/99,06:10:01,103,310,-7,243,960
01/02/99,06:15:01,116,326,-7,245,960
01/02/99,06:20:01,102,311,-7,263,960
01/02/99,06:25:01,124,321,-7,273,960
01/02/99,06:30:01,139,311,-7,268,958
01/02/99,06:35:01,104,311,-6,259,958
01/02/99,06:40:01,114,311,-6,524,958
01/02/99,06:45:01,111,315,-5,507,958
01/02/99,06:50:01,131,309,-5,485,958
01/02/99,06:55:01,123,309,-5,451,958
01/02/99,07:00:01,117,304,-5,436,958
01/02/99,07:05:01,164,304,-5,432,958
01/02/99,07:10:01,103,294,-5,417,958
01/02/99,07:15:01,115,294,-5,383,958
01/02/99,07:20:01,119,305,-5,382,958
01/02/99,07:25:01,127,301,-5,324,958
01/02/99,07:30:01,128,314,-6,259,958
01/02/99,07:35:01,107,303,-6,318,958
01/02/99,07:40:01,140,303,-6,376,958
01/02/99,07:45:01,120,301,-6,509,958
01/02/99,07:50:01,141,301,-5,404,958
01/02/99,07:55:01,121,290,-6,438,958
01/02/99,08:00:01,116,288,-6,350,958
01/02/99,08:05:01,145,310,-6,442,958
01/02/99,08:10:01,134,297,-6,380,958
01/02/99,08:15:01,125,298,-6,267,958
01/02/99,08:20:01,121,298,-7,177,958
01/02/99,08:25:01,124,292,-7,148,958
01/02/99,08:30:01,131,292,-7,156,958
01/02/99,08:35:01,119,291,-7,201,958
01/02/99,08:40:01,113,291,-7,144,958
01/02/99,08:45:01,93,303,-7,145,958
01/02/99,08:50:01,111,302,-7,366,958
01/02/99,08:55:01,122,288,-7,239,958
01/02/99,09:00:01,111,290,-7,207,958
01/02/99,09:05:01,116,290,-7,201,958
01/02/99,09:10:01,87,283,-7,201,958
01/02/99,09:15:01,129,292,-7,204,958
01/02/99,09:20:01,127,291,-7,225,958
01/02/99,09:25:01,101,296,-7,237,958
01/02/99,09:30:01,79,306,-7,170,958
01/02/99,09:35:01,105,295,-7,150,958
01/02/99,09:40:01,101,295,-8,126,958
01/02/99,09:45:01,109,305,-8,142,956
01/02/99,09:50:01,117,305,-8,135,956
01/02/99,09:55:01,85,294,-8,93,956
01/02/99,10:00:01,116,290,-8,83,956
01/02/99,10:05:01,102,300,-8,76,956
01/02/99,10:10:01,119,301,-7,185,956
01/02/99,10:15:01,97,301,-8,206,956
01/02/99,10:20:01,118,301,-7,276,956
01/02/99,10:25:01,116,301,-7,246,956
01/02/99,10:30:01,84,300,-6,264,956
01/02/99,10:35:01,94,299,-6,262,956
01/02/99,10:40:01,83,304,-6,170,956
01/02/99,10:45:01,122,297,-6,247,956
01/02/99,10:50:01,96,298,-7,249,956
01/02/99,10:55:01,112,298,-7,245,956
01/02/99,11:00:01,71,296,-7,144,956
01/02/99,11:05:01,90,319,-7,231,956
01/02/99,11:10:01,92,300,-6,232,956
01/02/99,11:15:01,83,300,-6,222,956
01/02/99,11:20:01,88,300,-7,218,956
01/02/99,11:25:01,109,296,-7,214,956
01/02/99,11:30:01,106,304,-7,210,956
01/02/99,11:35:01,103,294,-7,208,956
01/02/99,11:40:01,90,297,-7,204,956
01/02/99,11:45:01,120,297,-7,202,956
01/02/99,11:50:01,94,306,-7,200,956
01/02/99,11:55:01,98,307,-7,198,956
01/02/99,12:00:01,79,293,-7,181,956
01/02/99,12:05:01,103,298,-8,105,956
01/02/99,12:10:01,105,299,-8,99,956
01/02/99,12:15:01,106,298,-8,92,956
01/02/99,12:20:01,64,296,-8,94,956
01/02/99,12:25:01,76,305,-8,105,956
01/02/99,12:30:01,48,294,-8,108,956
01/02/99,12:35:01,74,297,-8,79,956
01/02/99,12:40:01,86,296,-8,117,956
01/02/99,12:45:01,87,306,-8,79,954
01/02/99,12:50:01,70,290,-8,224,954
01/02/99,12:55:01,89,301,-8,222,954
01/02/99,13:00:01,94,299,-8,78,954
01/02/99,13:05:01,88,303,-8,72,954
01/02/99,13:10:01,89,292,-9,76,954
01/02/99,13:15:01,77,310,-9,72,954
01/02/99,13:20:01,109,298,-9,93,954
01/02/99,13:25:01,90,293,-9,110,954
01/02/99,13:30:01,70,299,-9,114,954
01/02/99,13:35:01,55,288,-8,94,954
01/02/99,13:40:01,99,288,-8,90,954
01/02/99,13:45:01,84,287,-8,80,954
01/02/99,13:50:01,94,298,-8,78,954
01/02/99,13:55:01,72,297,-8,88,954
01/02/99,14:00:01,74,298,-9,106,954
01/02/99,14:05:01,112,290,-9,114,954
01/02/99,14:10:01,68,317,-8,122,954
01/02/99,14:15:01,96,292,-9,117,954
01/02/99,14:20:01,58,302,-9,82,954
01/02/99,14:25:01,74,298,-9,132,954
01/02/99,14:30:01,115,285,-9,86,954
01/02/99,14:35:01,80,295,-9,105,954
01/02/99,14:40:01,55,295,-9,102,954
01/02/99,14:45:01,80,295,-9,115,954
01/02/99,14:50:01,57,291,-9,131,954
01/02/99,14:55:01,63,290,-9,141,954
01/02/99,15:00:01,62,301,-8,145,954
01/02/99,15:05:01,75,298,-8,149,954
01/02/99,15:10:01,66,286,-8,161,954
01/02/99,15:15:01,63,286,-8,177,954
01/02/99,15:20:01,54,281,-8,169,954
01/02/99,15:25:01,62,297,-8,135,954
01/02/99,15:30:01,48,241,-8,111,954
01/02/99,15:35:01,69,256,-8,105,954
01/02/99,15:40:01,45,242,-8,95,954
01/02/99,15:45:01,54,272,-8,87,954
01/02/99,15:50:01,41,236,-7,87,954
01/02/99,15:55:01,53,271,-7,83,954
01/02/99,16:00:01,19,235,-7,91,954
01/02/99,16:05:01,48,242,-7,97,954
01/02/99,16:10:01,49,254,-7,87,954
01/02/99,16:15:01,39,266,-7,73,954
01/02/99,16:20:01,30,238,-7,65,954
01/02/99,16:25:01,12,222,-7,63,954
01/02/99,16:30:01,26,235,-7,68,954
01/02/99,16:35:01,35,173,-7,66,954
01/02/99,16:40:01,17,165,-7,62,952
01/02/99,16:45:01,84,170,-7,66,952
01/02/99,16:50:01,90,214,-7,63,952
01/02/99,16:55:01,79,209,-7,70,952
01/02/99,17:00:01,55,230,-7,80,952
01/02/99,17:05:01,60,213,-7,86,952
01/02/99,17:10:01,84,164,-7,78,952
01/02/99,17:15:01,74,213,-7,68,952
01/02/99,17:20:01,134,181,-6,74,952
01/02/99,17:25:01,135,200,-6,78,952
01/02/99,17:30:01,112,212,-6,78,952
01/02/99,17:35:01,109,187,-6,86,952
01/02/99,17:40:01,125,176,-6,84,952
01/02/99,17:45:01,166,188,-6,84,952
01/02/99,17:50:01,185,177,-6,82,952
01/02/99,17:55:01,206,177,-7,80,952
01/02/99,18:00:01,204,177,-6,86,952
01/02/99,18:05:01,210,181,-7,90,952
01/02/99,18:10:01,243,180,-7,90,952
01/02/99,18:15:01,186,182,-7,92,952
01/02/99,18:20:01,211,192,-7,102,952
01/02/99,18:25:01,156,213,-7,108,952
01/02/99,18:30:01,156,218,-6,100,952
01/02/99,18:35:01,166,220,-6,100,952
01/02/99,18:40:01,153,229,-6,104,952
01/02/99,18:45:01,140,221,-7,104,952
01/02/99,18:50:01,135,221,-6,112,952
01/02/99,18:55:01,137,220,-7,124,952
01/02/99,19:00:01,218,204,-6,126,952
01/02/99,19:05:01,310,192,-6,138,952
01/02/99,19:10:01,325,192,-6,138,952
01/02/99,19:15:01,287,198,-6,140,952
01/02/99,19:20:01,328,198,-6,144,952
01/02/99,19:25:01,299,196,-6,144,952
01/02/99,19:30:01,353,196,-6,161,952
01/02/99,19:35:01,342,196,-6,167,952
01/02/99,19:40:01,328,196,-6,175,950
01/02/99,19:45:01,370,195,-6,179,950
01/02/99,19:50:01,378,195,-6,183,950
01/02/99,19:55:01,425,197,-6,181,950
01/02/99,20:00:01,386,192,-6,175,950
01/02/99,20:05:01,357,192,-6,167,950
01/02/99,20:10:01,407,192,-6,157,950
01/02/99,20:15:01,479,182,-7,149,950
01/02/99,20:20:01,527,182,-7,138,950
01/02/99,20:25:01,503,182,-7,138,950
01/02/99,20:30:01,460,181,-7,106,950
01/02/99,20:35:01,531,181,-7,96,950
01/02/99,20:40:01,549,180,-8,109,950
01/02/99,20:45:01,567,191,-8,120,950
01/02/99,20:50:01,571,191,-8,112,950
01/02/99,20:55:01,543,177,-8,107,950
01/02/99,21:00:01,553,188,-8,117,950
01/02/99,21:05:01,547,178,-8,127,950
01/02/99,21:10:01,543,189,-8,135,950
01/02/99,21:15:01,489,189,-8,141,950
01/02/99,21:20:01,407,175,-8,140,950
01/02/99,21:25:01,418,169,-7,162,950
01/02/99,21:30:01,415,169,-7,155,950
01/02/99,21:35:01,407,165,-7,159,950
01/02/99,21:40:01,393,175,-7,163,950
01/02/99,21:45:01,482,175,-7,167,950
01/02/99,21:50:01,513,185,-7,165,950
01/02/99,21:55:01,531,185,-7,161,950
01/02/99,22:00:01,530,185,-7,165,950
01/02/99,22:05:01,543,185,-7,169,950
01/02/99,22:10:01,522,185,-7,165,950
01/02/99,22:15:01,569,185,-6,161,948
01/02/99,22:20:01,549,185,-6,157,948
01/02/99,22:25:01,634,185,-6,155,948
01/02/99,22:30:01,574,185,-6,167,948
01/02/99,22:35:01,497,185,-6,169,948
01/02/99,22:40:01,586,185,-6,155,948
01/02/99,22:45:01,503,196,-7,144,948
01/02/99,22:50:01,559,183,-7,150,948
01/02/99,22:55:01,525,183,-7,154,948
01/02/99,23:00:01,453,185,-7,167,948
01/02/99,23:05:01,511,185,-6,183,948
01/02/99,23:10:01,545,175,-6,183,948
01/02/99,23:15:01,490,175,-7,175,948
01/02/99,23:20:01,487,177,-7,163,948
01/02/99,23:25:01,446,177,-7,152,948
01/02/99,23:30:01,501,175,-7,142,948
01/02/99,23:35:01,513,158,-7,136,948
01/02/99,23:40:01,608,168,-7,130,948
01/02/99,23:45:01,568,182,-7,128,948
01/02/99,23:50:01,621,182,-7,120,948
01/02/99,23:55:01,519,182,-7,124,950
01/03/99,00:00:01,550,182,-7,133,950
